Showing default

HERMES-5, 63834

Orbit data source: Space-Track

HERMES-5, 63834 is a payload satellite owned by ASI (IT) in SSO that was launched on Sat, 15 Mar 2025 UTC via an FALCON 9 launch vehicle from the Air Force Western Test Range (AFWTR). Payload-class satellites include a variety of spacecraft equipped with specific instruments for various scientific and technological missions. These include communications satellites like Starlink; space stations such as the ISS; scientific satellites like the Hubble; Earth observation satellites from companies like Planet Labs, Umbra, and HawkEye 360; GPS; miniature CubeSats for education and research; and military/defense satellites.

Loading next visibility...
Identifier
63834, 2025-052BQ
Orbit
SSO
Country
Flag of ITIT
Related business
Manufacturer
MILANP/INAFI
Mission
Operational Civil Astronomy
Bus & Motor
CUBESAT 3U, Unknown motor
Mass
5 kg wet, 5 kg dry
Launch date (UTC)
2025-03-15 (7 months ago)
Launch vehicle
FALCON 9
Launch site
Air Force Western Test Range (AFWTR)
Object type
Payload
Rocket body
Debris
Shape & HBR
Box, 0.2 m
Radar Cross Section
0.035 m², Small (<0.1 m²)

Expand to show TLE details & history
Last TLE update: 12 hours ago

TLE from 12 hours ago
0 HERMES-5
1 63834U 25052BQ  25298.64924179  .00013310  00000-0  59650-3 0  9992
2 63834  97.4202 190.3922 0003185 245.4521 114.6382 15.21355104 34207
Epoch: 2025-10-25T15:34Z
TLE epoch observation values (Epoch: 2025-10-25T15:34:54.490Z)
Latitude
-0.00014°
Longitude
-77.61158°
Altitude
505.758 km
Speed
7.611 km/s
True Right ascension
12h 41m 34s
True Declination
0° 00' 00"
Sunlit
Object was in daylight at epoch
Visualization orbit readout
Latitude
Unknown
Longitude
Unknown
Altitude
Unknown
Speed
Unknown
Apparent Right ascension
Unknown
Apparent Declination
Unknown
Sunlit
N/A
Visualization observer readout
Local Sidereal Time
23:08:26
Azimuth
Unknown
Elevation
Unknown
Doppler factor
Unknown
Orbital elements
Apogee altitude
500.907 km
Perigee altitude
496.527 km
Semi-major axis
6,876.854 km
Eccentricity
0.00032
Inclination
97.4202°
RAAN
190.3922°
Arg. of periapsis
245.4521°
True anomaly
114.67137°
Mean anomaly
114.6382°
Eccentric anomaly
114.65479°
Mean motion
3.80591 °/min
Orbital period
94.59 mins
BSTAR
0.0005965
Loading maneuver chart data...
Computing Atmospheric mass density...
Loading historical data...
Loading historical data...
Loading historical data...
Loading historical data...
Loading historical data...
Loading historical data...
Loading historical data...

Documentation

Showing up to 5 results
|